Flag for U.S.A. Weather past 2 weeks in Charlotte, North Carolina, U.S.A.

Now
56 °F

Clear.


Feels Like: 56 °F
Forecast: 55 / 73 °F
Wind: 3 mph from Northwest

Location: Charlotte / Douglas International Airport


UV Index: 5 (Moderate)

Visibility: 10 mi


Pressure: 29.73 "Hg

Humidity: 97%

Dew point: 55 °F

Location of CharlotteLocation

Historic Weather in Charlotte

°F

Charlotte temperature yesterday

Maximum temperature yesterday: 79 °F (at 12:52 PM)
Minimum temperature yesterday: 51 °F (at 6:52 AM)
Average temperature yesterday: 64 °F

Past Weeks' High & Low Weather Summary

 TemperatureHumidityPressure
High80 °F (Apr 12, 3:52 PM)100% (Apr 8, 2:52 AM)30.54 "Hg (Apr 8, 2:52 AM)
Low32 °F (Apr 16, 6:52 AM)23% (Apr 10, 3:52 PM)29.59 "Hg (Apr 8, 4:52 AM)
Average59 °F61%30.08 "Hg
* Reported Apr 8 2:52 AM — Apr 23 2:52 AM, Charlotte, Weather by CustomWeather, © 2014

Note: Actual official high and low records may vary slightly from our data, if they occured in-between our weather recording intervals... More about our weather records

Advertising

Historic Weather Conditions — Data for Previous 24 hours

 ConditionsComfort  
Time TempWeatherWind HumidityBarometerVisibility
2:52 AM
Apr 23
56 °FClear.3 mph97%29.73 "Hg10 mi
1:52 AM55 °FClear.No wind96%29.75 "Hg7 mi
12:52 AM58 °FClear.No wind93%29.76 "Hg10 mi
11:52 PM
Apr 22
58 °FClear.No wind97%29.75 "Hg10 mi
10:52 PM61 °FClear.3 mph90%29.76 "Hg10 mi
9:52 PM62 °FPassing clouds.3 mph86%29.76 "Hg10 mi
8:52 PM64 °FBroken clouds.3 mph81%29.74 "Hg10 mi
7:52 PM65 °FPartly sunny.No wind78%29.73 "Hg10 mi
6:52 PM67 °FMostly cloudy.3 mph73%29.73 "Hg10 mi
5:52 PM68 °FMore clouds than sun.5 mph70%29.74 "Hg10 mi
4:52 PM66 °FLight rain. Mostly cloudy.5 mph78%29.76 "Hg10 mi
3:52 PM67 °FLight rain. More clouds than sun.7 mph73%29.75 "Hg10 mi
2:52 PM74 °FLight rain. Cloudy.9 mph45%29.76 "Hg10 mi
1:52 PM78 °FCloudy.9 mph40%29.76 "Hg10 mi
12:52 PM79 °FSunny.7 mph38%29.77 "Hg10 mi
11:52 AM78 °FPartly sunny.8 mph39%29.80 "Hg10 mi
10:52 AM74 °FPartly sunny.No wind45%29.80 "Hg10 mi
9:52 AM69 °FPassing clouds.3 mph51%29.82 "Hg10 mi
8:52 AM62 °FPassing clouds.No wind60%29.83 "Hg10 mi
7:52 AM57 °FScattered clouds.No wind72%29.84 "Hg10 mi
6:52 AM51 °FPassing clouds.No wind83%29.83 "Hg10 mi
5:52 AM55 °FMostly cloudy.No wind72%29.84 "Hg10 mi
4:52 AM53 °FPassing clouds.No wind74%29.85 "Hg10 mi
Weather by CustomWeather, © 2014

See weather overview